TimeEDT,TemperatureF,Dew PointF,Humidity,Sea Level PressureIn,VisibilityMPH,Wind Direction,Wind SpeedMPH,Gust SpeedMPH,PrecipitationIn,Events,Conditions,WindDirDegrees,DateUTC
12:15 AM,39.2,39.2,100,30.05,7.0,Calm,Calm,-,N/A,,Clear,0,2011-10-23 04:15:00
12:35 AM,39.2,39.2,100,30.04,10.0,Calm,Calm,-,N/A,,Clear,0,2011-10-23 04:35:00
12:50 AM,39.2,39.2,100,30.04,10.0,Calm,Calm,-,N/A,,Clear,0,2011-10-23 04:50:00
1:10 AM,39.2,39.2,100,30.04,7.0,Calm,Calm,-,N/A,,Clear,0,2011-10-23 05:10:00
1:31 AM,39.2,39.2,100,30.04,10.0,Calm,Calm,-,N/A,,Clear,0,2011-10-23 05:31:00
1:36 AM,39.2,39.2,100,30.04,7.0,Calm,Calm,-,N/A,,Clear,0,2011-10-23 05:36:00
2:15 AM,37.4,37.4,100,30.03,7.0,Calm,Calm,-,N/A,,Clear,110,2011-10-23 06:15:00
2:31 AM,37.4,37.4,100,30.03,7.0,Calm,Calm,-,N/A,,Clear,0,2011-10-23 06:31:00
2:54 AM,37.4,37.4,100,30.02,10.0,Calm,Calm,-,N/A,,Clear,0,2011-10-23 06:54:00
3:14 AM,37.4,37.4,100,30.01,10.0,Calm,Calm,-,N/A,,Clear,0,2011-10-23 07:14:00
3:35 AM,37.4,37.4,100,30.01,10.0,Calm,Calm,-,N/A,,Clear,0,2011-10-23 07:35:00
3:55 AM,37.4,37.4,100,30.01,10.0,Calm,Calm,-,N/A,,Clear,0,2011-10-23 07:55:00
4:15 AM,37.4,37.4,100,30.01,10.0,Calm,Calm,-,N/A,,Clear,0,2011-10-23 08:15:00
4:35 AM,37.4,37.4,100,30.02,7.0,Calm,Calm,-,N/A,,Clear,0,2011-10-23 08:35:00
4:50 AM,37.4,37.4,100,30.01,5.0,Calm,Calm,-,N/A,,Clear,0,2011-10-23 08:50:00
5:10 AM,37.4,37.4,100,30.02,7.0,Calm,Calm,-,N/A,,Clear,0,2011-10-23 09:10:00
5:30 AM,37.4,37.4,100,30.03,7.0,Calm,Calm,-,N/A,,Clear,0,2011-10-23 09:30:00
5:51 AM,39.2,39.2,100,30.02,10.0,Calm,Calm,-,N/A,,Clear,0,2011-10-23 09:51:00
6:11 AM,37.4,37.4,100,30.03,10.0,Calm,Calm,-,N/A,,Clear,0,2011-10-23 10:11:00
6:31 AM,37.4,37.4,100,30.03,10.0,Calm,Calm,-,N/A,,Clear,0,2011-10-23 10:31:00
6:51 AM,37.4,37.4,100,30.03,10.0,Calm,Calm,-,N/A,,Clear,0,2011-10-23 10:51:00
7:11 AM,37.4,37.4,100,30.03,10.0,Calm,Calm,-,N/A,,Clear,0,2011-10-23 11:11:00
7:31 AM,37.4,37.4,100,30.02,10.0,Calm,Calm,-,N/A,,Clear,0,2011-10-23 11:31:00
7:52 AM,37.4,37.4,100,30.02,10.0,Calm,Calm,-,N/A,,Clear,0,2011-10-23 11:52:00
8:12 AM,39.2,39.2,100,30.03,7.0,Calm,Calm,-,N/A,,Clear,0,2011-10-23 12:12:00
8:32 AM,39.2,39.2,100,30.03,7.0,Calm,Calm,-,N/A,,Clear,0,2011-10-23 12:32:00
8:52 AM,42.8,42.8,100,30.03,7.0,SSE,3.5,-,N/A,,Scattered Clouds,150,2011-10-23 12:52:00
9:12 AM,46.4,42.8,87,30.03,10.0,South,5.8,-,N/A,,Mostly Cloudy,180,2011-10-23 13:12:00
9:32 AM,48.2,41.0,76,30.02,10.0,South,6.9,-,N/A,,Scattered Clouds,190,2011-10-23 13:32:00
9:53 AM,50.0,39.2,66,30.03,10.0,SSW,6.9,-,N/A,,Scattered Clouds,200,2011-10-23 13:53:00
10:13 AM,48.2,41.0,76,30.02,10.0,SSW,3.5,-,N/A,,Mostly Cloudy,200,2011-10-23 14:13:00
10:53 AM,53.6,41.0,62,30.02,10.0,SSW,6.9,-,N/A,,Scattered Clouds,210,2011-10-23 14:53:00
11:13 AM,55.4,42.8,63,30.01,10.0,South,5.8,-,N/A,,Clear,190,2011-10-23 15:13:00
11:33 AM,57.2,41.0,55,30.01,10.0,South,5.8,-,N/A,,Clear,190,2011-10-23 15:33:00
11:53 AM,60.8,42.8,52,30.01,10.0,SSW,9.2,-,N/A,,Scattered Clouds,210,2011-10-23 15:53:00
12:14 PM,60.8,39.2,45,30.00,10.0,SSW,10.4,-,N/A,,Scattered Clouds,210,2011-10-23 16:14:00
12:34 PM,62.6,42.8,48,29.99,10.0,South,10.4,-,N/A,,Scattered Clouds,180,2011-10-23 16:34:00
12:54 PM,60.8,42.8,52,29.98,10.0,South,11.5,-,N/A,,Scattered Clouds,180,2011-10-23 16:54:00
1:14 PM,62.6,42.8,48,29.97,10.0,South,11.5,-,N/A,,Scattered Clouds,190,2011-10-23 17:14:00
1:34 PM,62.6,41.0,45,29.97,10.0,SW,12.7,17.3,N/A,,Scattered Clouds,220,2011-10-23 17:34:00
1:54 PM,64.4,42.8,45,29.96,10.0,SSW,15.0,-,N/A,,Scattered Clouds,200,2011-10-23 17:54:00
2:15 PM,64.4,41.0,42,29.95,10.0,SSW,12.7,18.4,N/A,,Scattered Clouds,210,2011-10-23 18:15:00
2:35 PM,64.4,41.0,42,29.94,10.0,SSW,17.3,20.7,N/A,,Scattered Clouds,200,2011-10-23 18:35:00
2:50 PM,64.4,42.8,45,29.94,10.0,SSW,15.0,20.7,N/A,,Scattered Clouds,210,2011-10-23 18:50:00
3:10 PM,66.2,42.8,43,29.93,10.0,SSW,12.7,17.3,N/A,,Scattered Clouds,200,2011-10-23 19:10:00
3:30 PM,64.4,42.8,45,29.93,10.0,SSW,11.5,18.4,N/A,,Scattered Clouds,200,2011-10-23 19:30:00
3:50 PM,64.4,42.8,45,29.92,10.0,SSW,11.5,19.6,N/A,,Clear,210,2011-10-23 19:50:00
4:11 PM,66.2,42.8,43,29.92,10.0,SSW,10.4,19.6,N/A,,Clear,210,2011-10-23 20:11:00
4:31 PM,66.2,42.8,43,29.92,10.0,SSW,11.5,18.4,N/A,,Clear,210,2011-10-23 20:31:00
4:51 PM,64.4,42.8,45,29.91,10.0,SSW,11.5,-,N/A,,Clear,200,2011-10-23 20:51:00
5:11 PM,64.4,44.6,49,29.91,10.0,SSW,10.4,-,N/A,,Clear,200,2011-10-23 21:11:00
5:31 PM,62.6,44.6,52,29.91,10.0,SSW,6.9,-,N/A,,Clear,200,2011-10-23 21:31:00
5:51 PM,62.6,44.6,52,29.91,10.0,SSW,11.5,-,N/A,,Clear,200,2011-10-23 21:51:00
6:12 PM,60.8,44.6,55,29.92,10.0,South,8.1,-,N/A,,Clear,190,2011-10-23 22:12:00
6:32 PM,59.0,44.6,59,29.92,10.0,South,5.8,-,N/A,,Clear,190,2011-10-23 22:32:00
6:52 PM,55.4,44.6,67,29.93,10.0,South,4.6,-,N/A,,Clear,180,2011-10-23 22:52:00
7:52 PM,53.6,44.6,72,29.94,10.0,South,3.5,-,N/A,,Clear,180,2011-10-23 23:52:00
8:12 PM,53.6,44.6,72,29.94,10.0,South,4.6,-,N/A,,Clear,180,2011-10-24 00:12:00
8:33 PM,51.8,44.6,76,29.94,10.0,South,4.6,-,N/A,,Clear,180,2011-10-24 00:33:00
8:53 PM,51.8,44.6,76,29.94,10.0,South,4.6,-,N/A,,Clear,190,2011-10-24 00:53:00
9:33 PM,51.8,44.6,76,29.94,10.0,South,4.6,-,N/A,,Clear,180,2011-10-24 01:33:00
9:53 PM,51.8,44.6,76,29.94,10.0,South,5.8,-,N/A,,Clear,190,2011-10-24 01:53:00
10:14 PM,53.6,46.4,77,29.93,10.0,South,8.1,-,N/A,,Clear,190,2011-10-24 02:14:00
10:34 PM,53.6,46.4,77,29.93,10.0,SSW,6.9,-,N/A,,Clear,200,2011-10-24 02:34:00
10:54 PM,53.6,46.4,77,29.93,10.0,South,6.9,-,N/A,,Clear,190,2011-10-24 02:54:00
11:34 PM,53.6,46.4,77,29.92,10.0,SSW,5.8,-,N/A,,Scattered Clouds,200,2011-10-24 03:34:00
11:54 PM,53.6,46.4,77,29.92,10.0,SSW,6.9,-,N/A,,Mostly Cloudy,200,2011-10-24 03:54:00